owner,sensor,date,latitude,longitude,vertical_datum,sea_water_temperature,qcFlag
BP,ioos:station:wmo:42880:2,2022-09-01T00:09:00Z,0.0000,0.0000,10.2,30.3,11111222
BP,ioos:station:wmo:42880:2,2022-09-01T00:19:00Z,0.0000,0.0000,10.2,30.3,11111222
BP,ioos:station:wmo:42880:2,2022-09-01T00:29:00Z,0.0000,0.0000,10.2,30.3,11111222
BP,ioos:station:wmo:42880:2,2022-09-01T00:39:00Z,0.0000,0.0000,10.2,30.3,11111222
BP,ioos:station:wmo:42880:2,2022-09-01T00:49:00Z,0.0000,0.0000,10.1,30.3,11111222
BP,ioos:station:wmo:42880:2,2022-09-01T00:59:00Z,0.0000,0.0000,10.0,30.3,11111222
BP,ioos:station:wmo:42880:2,2022-09-01T01:09:00Z,0.0000,0.0000,10.0,30.3,11111222
BP,ioos:station:wmo:42880:2,2022-09-01T01:19:00Z,0.0000,0.0000,10.1,30.3,11111222
BP,ioos:station:wmo:42880:2,2022-09-01T01:29:00Z,0.0000,0.0000,10.0,30.3,11111222
BP,ioos:station:wmo:42880:2,2022-09-01T01:39:00Z,0.0000,0.0000,10.0,30.3,11111222
BP,ioos:station:wmo:42880:2,2022-09-01T01:49:00Z,0.0000,0.0000,10.0,30.3,11111222
BP,ioos:station:wmo:42880:2,2022-09-01T01:59:00Z,0.0000,0.0000,10.0,30.2,11111222
BP,ioos:station:wmo:42880:2,2022-09-01T02:09:00Z,0.0000,0.0000,10.0,30.2,11111222
BP,ioos:station:wmo:42880:2,2022-09-01T02:19:00Z,0.0000,0.0000,10.0,30.2,11111222
BP,ioos:station:wmo:42880:2,2022-09-01T02:29:00Z,0.0000,0.0000,10.1,30.2,11111222
BP,ioos:station:wmo:42880:2,2022-09-01T02:39:00Z,0.0000,0.0000,10.1,30.2,11111222
BP,ioos:station:wmo:42880:2,2022-09-01T02:49:00Z,0.0000,0.0000,10.1,30.2,11111222
BP,ioos:station:wmo:42880:2,2022-09-01T02:59:00Z,0.0000,0.0000,10.0,30.2,11111222
BP,ioos:station:wmo:42880:2,2022-09-01T03:09:00Z,0.0000,0.0000,10.0,30.2,11111222
BP,ioos:station:wmo:42880:2,2022-09-01T03:19:00Z,0.0000,0.0000,10.0,30.2,11111222
BP,ioos:station:wmo:42880:2,2022-09-01T03:29:00Z,0.0000,0.0000,9.9,30.2,11111222
BP,ioos:station:wmo:42880:2,2022-09-01T03:39:00Z,0.0000,0.0000,9.9,30.2,11111222
BP,ioos:station:wmo:42880:2,2022-09-01T03:49:00Z,0.0000,0.0000,9.9,30.2,11111222
BP,ioos:station:wmo:42880:2,2022-09-01T03:59:00Z,0.0000,0.0000,9.8,30.2,11111222
BP,ioos:station:wmo:42880:2,2022-09-01T04:09:00Z,0.0000,0.0000,9.8,30.2,11111222
BP,ioos:station:wmo:42880:2,2022-09-01T04:19:00Z,0.0000,0.0000,10.0,30.2,11111222
BP,ioos:station:wmo:42880:2,2022-09-01T04:29:00Z,0.0000,0.0000,10.0,30.2,11111222
BP,ioos:station:wmo:42880:2,2022-09-01T04:39:00Z,0.0000,0.0000,10.1,30.2,11111222
BP,ioos:station:wmo:42880:2,2022-09-01T04:49:00Z,0.0000,0.0000,9.9,30.2,11111222
BP,ioos:station:wmo:42880:2,2022-09-01T04:59:00Z,0.0000,0.0000,9.6,30.2,11111222
BP,ioos:station:wmo:42880:2,2022-09-01T05:09:00Z,0.0000,0.0000,9.6,30.2,11111222
BP,ioos:station:wmo:42880:2,2022-09-01T05:19:00Z,0.0000,0.0000,9.5,30.2,11111222
BP,ioos:station:wmo:42880:2,2022-09-01T05:29:00Z,0.0000,0.0000,9.6,30.2,11111222
BP,ioos:station:wmo:42880:2,2022-09-01T05:39:00Z,0.0000,0.0000,9.6,30.2,11111222
BP,ioos:station:wmo:42880:2,2022-09-01T05:49:00Z,0.0000,0.0000,9.6,30.2,11111222
BP,ioos:station:wmo:42880:2,2022-09-01T05:59:00Z,0.0000,0.0000,9.8,30.2,11111222
BP,ioos:station:wmo:42880:2,2022-09-01T06:09:00Z,0.0000,0.0000,9.7,30.2,11111222
BP,ioos:station:wmo:42880:2,2022-09-01T06:19:00Z,0.0000,0.0000,9.6,30.2,11111222
BP,ioos:station:wmo:42880:2,2022-09-01T06:29:00Z,0.0000,0.0000,9.7,30.2,11111222
BP,ioos:station:wmo:42880:2,2022-09-01T06:39:00Z,0.0000,0.0000,9.7,30.2,11111222
BP,ioos:station:wmo:42880:2,2022-09-01T06:49:00Z,0.0000,0.0000,9.8,30.2,11111222
BP,ioos:station:wmo:42880:2,2022-09-01T06:59:00Z,0.0000,0.0000,9.7,30.2,11111222
BP,ioos:station:wmo:42880:2,2022-09-01T07:09:00Z,0.0000,0.0000,9.7,30.2,11111222
BP,ioos:station:wmo:42880:2,2022-09-01T07:19:00Z,0.0000,0.0000,9.7,30.2,11111222
BP,ioos:station:wmo:42880:2,2022-09-01T07:29:00Z,0.0000,0.0000,9.7,30.2,11111222
BP,ioos:station:wmo:42880:2,2022-09-01T07:39:00Z,0.0000,0.0000,9.8,30.2,11111222
BP,ioos:station:wmo:42880:2,2022-09-01T07:49:00Z,0.0000,0.0000,9.8,30.2,11111222
BP,ioos:station:wmo:42880:2,2022-09-01T07:59:00Z,0.0000,0.0000,9.8,30.2,11111222
BP,ioos:station:wmo:42880:2,2022-09-01T08:09:00Z,0.0000,0.0000,9.9,30.2,11111222
BP,ioos:station:wmo:42880:2,2022-09-01T08:19:00Z,0.0000,0.0000,9.8,30.2,11111222
BP,ioos:station:wmo:42880:2,2022-09-01T08:29:00Z,0.0000,0.0000,9.9,30.2,11111222
BP,ioos:station:wmo:42880:2,2022-09-01T08:39:00Z,0.0000,0.0000,9.9,30.2,11111222
BP,ioos:station:wmo:42880:2,2022-09-01T08:49:00Z,0.0000,0.0000,10.0,30.2,11111222
BP,ioos:station:wmo:42880:2,2022-09-01T08:59:00Z,0.0000,0.0000,10.0,30.2,11111222
BP,ioos:station:wmo:42880:2,2022-09-01T09:09:00Z,0.0000,0.0000,9.9,30.2,11111222
BP,ioos:station:wmo:42880:2,2022-09-01T09:19:00Z,0.0000,0.0000,9.9,30.2,11111222
BP,ioos:station:wmo:42880:2,2022-09-01T09:29:00Z,0.0000,0.0000,10.0,30.2,11111222
BP,ioos:station:wmo:42880:2,2022-09-01T09:39:00Z,0.0000,0.0000,10.0,30.2,11111222
BP,ioos:station:wmo:42880:2,2022-09-01T09:49:00Z,0.0000,0.0000,10.0,30.2,11111222
BP,ioos:station:wmo:42880:2,2022-09-01T09:59:00Z,0.0000,0.0000,10.1,30.2,11111222
BP,ioos:station:wmo:42880:2,2022-09-01T10:09:00Z,0.0000,0.0000,10.1,30.2,11111222
BP,ioos:station:wmo:42880:2,2022-09-01T10:19:00Z,0.0000,0.0000,10.0,30.2,11111222
BP,ioos:station:wmo:42880:2,2022-09-01T10:29:00Z,0.0000,0.0000,10.0,30.2,11111222
BP,ioos:station:wmo:42880:2,2022-09-01T10:39:00Z,0.0000,0.0000,10.1,30.2,11111222
BP,ioos:station:wmo:42880:2,2022-09-01T10:49:00Z,0.0000,0.0000,10.0,30.2,11111222
BP,ioos:station:wmo:42880:2,2022-09-01T10:59:00Z,0.0000,0.0000,10.0,30.2,11111222
BP,ioos:station:wmo:42880:2,2022-09-01T11:09:00Z,0.0000,0.0000,10.0,30.2,11111222
BP,ioos:station:wmo:42880:2,2022-09-01T11:19:00Z,0.0000,0.0000,10.0,30.2,11111222
BP,ioos:station:wmo:42880:2,2022-09-01T11:29:00Z,0.0000,0.0000,10.0,30.2,11111222
BP,ioos:station:wmo:42880:2,2022-09-01T11:39:00Z,0.0000,0.0000,9.9,30.2,11111222
BP,ioos:station:wmo:42880:2,2022-09-01T11:49:00Z,0.0000,0.0000,9.9,30.2,11111222
BP,ioos:station:wmo:42880:2,2022-09-01T11:59:00Z,0.0000,0.0000,9.9,30.2,11111222
BP,ioos:station:wmo:42880:2,2022-09-01T12:09:00Z,0.0000,0.0000,9.9,30.2,11111222
BP,ioos:station:wmo:42880:2,2022-09-01T12:19:00Z,0.0000,0.0000,9.9,30.2,11111222
BP,ioos:station:wmo:42880:2,2022-09-01T12:47:00Z,0.0000,0.0000,9.8,30.2,11111222
BP,ioos:station:wmo:42880:2,2022-09-01T12:57:00Z,0.0000,0.0000,9.8,30.2,11111222
BP,ioos:station:wmo:42880:2,2022-09-01T13:07:00Z,0.0000,0.0000,9.7,30.2,11111222
BP,ioos:station:wmo:42880:2,2022-09-01T13:17:00Z,0.0000,0.0000,9.9,30.2,11111222
BP,ioos:station:wmo:42880:2,2022-09-01T13:27:00Z,0.0000,0.0000,10.1,30.2,11111222
BP,ioos:station:wmo:42880:2,2022-09-01T13:37:00Z,0.0000,0.0000,9.8,30.2,11111222
BP,ioos:station:wmo:42880:2,2022-09-01T13:47:00Z,0.0000,0.0000,9.8,30.2,11111222
BP,ioos:station:wmo:42880:2,2022-09-01T13:57:00Z,0.0000,0.0000,9.8,30.2,11111222
BP,ioos:station:wmo:42880:2,2022-09-01T14:07:00Z,0.0000,0.0000,9.8,30.2,11111222
BP,ioos:station:wmo:42880:2,2022-09-01T14:17:00Z,0.0000,0.0000,9.8,30.2,11111222
BP,ioos:station:wmo:42880:2,2022-09-01T14:27:00Z,0.0000,0.0000,9.8,30.2,11111222
BP,ioos:station:wmo:42880:2,2022-09-01T14:56:00Z,0.0000,0.0000,9.7,30.2,11111222
BP,ioos:station:wmo:42880:2,2022-09-01T15:25:00Z,0.0000,0.0000,9.7,30.2,11111222
BP,ioos:station:wmo:42880:2,2022-09-01T15:35:00Z,0.0000,0.0000,9.8,30.2,11111222
BP,ioos:station:wmo:42880:2,2022-09-01T15:45:00Z,0.0000,0.0000,9.7,30.2,11111222
BP,ioos:station:wmo:42880:2,2022-09-01T15:55:00Z,0.0000,0.0000,9.7,30.2,11111222
BP,ioos:station:wmo:42880:2,2022-09-01T16:05:00Z,0.0000,0.0000,9.7,30.2,11111222
BP,ioos:station:wmo:42880:2,2022-09-01T16:15:00Z,0.0000,0.0000,9.7,30.3,11111222
BP,ioos:station:wmo:42880:2,2022-09-01T16:25:00Z,0.0000,0.0000,9.7,30.3,11111222
BP,ioos:station:wmo:42880:2,2022-09-01T16:35:00Z,0.0000,0.0000,9.6,30.3,11111222
BP,ioos:station:wmo:42880:2,2022-09-01T16:45:00Z,0.0000,0.0000,9.5,30.3,11111222
BP,ioos:station:wmo:42880:2,2022-09-01T16:55:00Z,0.0000,0.0000,9.5,30.3,11111222
BP,ioos:station:wmo:42880:2,2022-09-01T17:05:00Z,0.0000,0.0000,9.4,30.3,11111222
BP,ioos:station:wmo:42880:2,2022-09-01T17:15:00Z,0.0000,0.0000,9.3,30.3,11111222
BP,ioos:station:wmo:42880:2,2022-09-01T17:25:00Z,0.0000,0.0000,9.2,30.3,11111222
BP,ioos:station:wmo:42880:2,2022-09-01T17:35:00Z,0.0000,0.0000,9.2,30.3,11111222
BP,ioos:station:wmo:42880:2,2022-09-01T17:45:00Z,0.0000,0.0000,9.2,30.3,11111222
BP,ioos:station:wmo:42880:2,2022-09-01T17:55:00Z,0.0000,0.0000,9.2,30.3,11111222
BP,ioos:station:wmo:42880:2,2022-09-01T18:05:00Z,0.0000,0.0000,9.2,30.3,11111222
BP,ioos:station:wmo:42880:2,2022-09-01T18:15:00Z,0.0000,0.0000,9.3,30.3,11111222
BP,ioos:station:wmo:42880:2,2022-09-01T18:25:00Z,0.0000,0.0000,9.3,30.3,11111222
BP,ioos:station:wmo:42880:2,2022-09-01T18:35:00Z,0.0000,0.0000,9.3,30.3,11111222
BP,ioos:station:wmo:42880:2,2022-09-01T18:45:00Z,0.0000,0.0000,9.4,30.3,11111222
BP,ioos:station:wmo:42880:2,2022-09-01T18:55:00Z,0.0000,0.0000,9.4,30.3,11111222
BP,ioos:station:wmo:42880:2,2022-09-01T19:05:00Z,0.0000,0.0000,9.4,30.3,11111222
BP,ioos:station:wmo:42880:2,2022-09-01T19:15:00Z,0.0000,0.0000,9.4,30.3,11111222
BP,ioos:station:wmo:42880:2,2022-09-01T19:25:00Z,0.0000,0.0000,9.4,30.3,11111222
BP,ioos:station:wmo:42880:2,2022-09-01T19:35:00Z,0.0000,0.0000,9.4,30.3,11111222
BP,ioos:station:wmo:42880:2,2022-09-01T19:45:00Z,0.0000,0.0000,9.4,30.3,11111222
BP,ioos:station:wmo:42880:2,2022-09-01T19:55:00Z,0.0000,0.0000,9.4,30.3,11111222
BP,ioos:station:wmo:42880:2,2022-09-01T20:05:00Z,0.0000,0.0000,9.4,30.4,11111222
BP,ioos:station:wmo:42880:2,2022-09-01T20:15:00Z,0.0000,0.0000,9.5,30.4,11111222
BP,ioos:station:wmo:42880:2,2022-09-01T20:25:00Z,0.0000,0.0000,9.5,30.4,11111222
BP,ioos:station:wmo:42880:2,2022-09-01T20:35:00Z,0.0000,0.0000,9.5,30.4,11111222
BP,ioos:station:wmo:42880:2,2022-09-01T20:45:00Z,0.0000,0.0000,9.3,30.5,11111222
BP,ioos:station:wmo:42880:2,2022-09-01T20:55:00Z,0.0000,0.0000,9.5,30.5,11111222
BP,ioos:station:wmo:42880:2,2022-09-01T21:05:00Z,0.0000,0.0000,9.6,30.5,11111222
BP,ioos:station:wmo:42880:2,2022-09-01T21:15:00Z,0.0000,0.0000,9.7,30.5,11111222
BP,ioos:station:wmo:42880:2,2022-09-01T21:25:00Z,0.0000,0.0000,9.7,30.5,11111222
BP,ioos:station:wmo:42880:2,2022-09-01T21:35:00Z,0.0000,0.0000,9.7,30.5,11111222
BP,ioos:station:wmo:42880:2,2022-09-01T21:45:00Z,0.0000,0.0000,9.6,30.5,11111222
BP,ioos:station:wmo:42880:2,2022-09-01T21:55:00Z,0.0000,0.0000,9.6,30.6,11111222
BP,ioos:station:wmo:42880:2,2022-09-01T22:05:00Z,0.0000,0.0000,9.6,30.6,11111222
BP,ioos:station:wmo:42880:2,2022-09-01T22:15:00Z,0.0000,0.0000,9.5,30.6,11111222
BP,ioos:station:wmo:42880:2,2022-09-01T22:25:00Z,0.0000,0.0000,9.5,30.6,11111222
BP,ioos:station:wmo:42880:2,2022-09-01T22:35:00Z,0.0000,0.0000,9.5,30.6,11111222
BP,ioos:station:wmo:42880:2,2022-09-01T22:45:00Z,0.0000,0.0000,9.5,30.6,11111222
BP,ioos:station:wmo:42880:2,2022-09-01T22:55:00Z,0.0000,0.0000,9.4,30.6,11111222
BP,ioos:station:wmo:42880:2,2022-09-01T23:05:00Z,0.0000,0.0000,9.3,30.6,11111222
BP,ioos:station:wmo:42880:2,2022-09-01T23:15:00Z,0.0000,0.0000,9.3,30.6,11111222
BP,ioos:station:wmo:42880:2,2022-09-01T23:25:00Z,0.0000,0.0000,9.3,30.6,11111222
BP,ioos:station:wmo:42880:2,2022-09-01T23:35:00Z,0.0000,0.0000,9.4,30.6,11111222
BP,ioos:station:wmo:42880:2,2022-09-01T23:45:00Z,0.0000,0.0000,9.6,30.6,11111222
BP,ioos:station:wmo:42880:2,2022-09-01T23:55:00Z,0.0000,0.0000,9.7,30.6,11111222
BP,ioos:station:wmo:42880:2,2022-09-02T00:05:00Z,0.0000,0.0000,9.8,30.6,11111222
BP,ioos:station:wmo:42880:2,2022-09-02T00:15:00Z,0.0000,0.0000,9.7,30.6,11111222
BP,ioos:station:wmo:42880:2,2022-09-02T00:25:00Z,0.0000,0.0000,9.6,30.5,11111222
BP,ioos:station:wmo:42880:2,2022-09-02T00:35:00Z,0.0000,0.0000,9.6,30.5,11111222
BP,ioos:station:wmo:42880:2,2022-09-02T00:45:00Z,0.0000,0.0000,9.6,30.5,11111222
BP,ioos:station:wmo:42880:2,2022-09-02T00:55:00Z,0.0000,0.0000,9.7,30.5,11111222
BP,ioos:station:wmo:42880:2,2022-09-02T01:05:00Z,0.0000,0.0000,9.7,30.5,11111222
BP,ioos:station:wmo:42880:2,2022-09-02T01:15:00Z,0.0000,0.0000,9.7,30.5,11111222
BP,ioos:station:wmo:42880:2,2022-09-02T01:25:00Z,0.0000,0.0000,9.6,30.5,11111222
BP,ioos:station:wmo:42880:2,2022-09-02T01:35:00Z,0.0000,0.0000,9.6,30.5,11111222
BP,ioos:station:wmo:42880:2,2022-09-02T01:45:00Z,0.0000,0.0000,9.6,30.6,11111222
BP,ioos:station:wmo:42880:2,2022-09-02T01:55:00Z,0.0000,0.0000,9.7,30.6,11111222
BP,ioos:station:wmo:42880:2,2022-09-02T02:05:00Z,0.0000,0.0000,9.6,30.5,11111222
BP,ioos:station:wmo:42880:2,2022-09-02T02:15:00Z,0.0000,0.0000,9.7,30.6,11111222
BP,ioos:station:wmo:42880:2,2022-09-02T02:25:00Z,0.0000,0.0000,9.7,30.5,11111222
BP,ioos:station:wmo:42880:2,2022-09-02T02:35:00Z,0.0000,0.0000,9.7,30.6,11111222
BP,ioos:station:wmo:42880:2,2022-09-02T02:45:00Z,0.0000,0.0000,9.6,30.6,11111222
BP,ioos:station:wmo:42880:2,2022-09-02T02:55:00Z,0.0000,0.0000,9.6,30.6,11111222
BP,ioos:station:wmo:42880:2,2022-09-02T03:05:00Z,0.0000,0.0000,9.6,30.5,11111222
BP,ioos:station:wmo:42880:2,2022-09-02T03:15:00Z,0.0000,0.0000,9.6,30.5,11111222
BP,ioos:station:wmo:42880:2,2022-09-02T03:25:00Z,0.0000,0.0000,9.6,30.5,11111222
BP,ioos:station:wmo:42880:2,2022-09-02T03:35:00Z,0.0000,0.0000,9.6,30.5,11111222
BP,ioos:station:wmo:42880:2,2022-09-02T03:45:00Z,0.0000,0.0000,9.7,30.4,11111222
BP,ioos:station:wmo:42880:2,2022-09-02T03:55:00Z,0.0000,0.0000,9.6,30.4,11111222
BP,ioos:station:wmo:42880:2,2022-09-02T04:05:00Z,0.0000,0.0000,9.8,30.4,11111222
BP,ioos:station:wmo:42880:2,2022-09-02T04:15:00Z,0.0000,0.0000,9.7,30.4,11111222
BP,ioos:station:wmo:42880:2,2022-09-02T04:25:00Z,0.0000,0.0000,9.7,30.4,11111222
BP,ioos:station:wmo:42880:2,2022-09-02T04:35:00Z,0.0000,0.0000,9.7,30.4,11111222
BP,ioos:station:wmo:42880:2,2022-09-02T04:45:00Z,0.0000,0.0000,9.7,30.4,11111222
BP,ioos:station:wmo:42880:2,2022-09-02T04:55:00Z,0.0000,0.0000,9.7,30.4,11111222
BP,ioos:station:wmo:42880:2,2022-09-02T05:05:00Z,0.0000,0.0000,9.8,30.4,11111222
BP,ioos:station:wmo:42880:2,2022-09-02T05:15:00Z,0.0000,0.0000,9.8,30.4,11111222
BP,ioos:station:wmo:42880:2,2022-09-02T05:25:00Z,0.0000,0.0000,9.8,30.4,11111222
BP,ioos:station:wmo:42880:2,2022-09-02T05:35:00Z,0.0000,0.0000,9.7,30.4,11111222
BP,ioos:station:wmo:42880:2,2022-09-02T05:45:00Z,0.0000,0.0000,9.6,30.4,11111222
BP,ioos:station:wmo:42880:2,2022-09-02T05:55:00Z,0.0000,0.0000,9.6,30.5,11111222
BP,ioos:station:wmo:42880:2,2022-09-02T06:05:00Z,0.0000,0.0000,9.6,30.5,11111222
BP,ioos:station:wmo:42880:2,2022-09-02T06:15:00Z,0.0000,0.0000,9.7,30.5,11111222
BP,ioos:station:wmo:42880:2,2022-09-02T06:25:00Z,0.0000,0.0000,9.9,30.4,11111222
BP,ioos:station:wmo:42880:2,2022-09-02T06:35:00Z,0.0000,0.0000,9.8,30.4,11111222
BP,ioos:station:wmo:42880:2,2022-09-02T06:45:00Z,0.0000,0.0000,9.7,30.5,11111222
BP,ioos:station:wmo:42880:2,2022-09-02T06:55:00Z,0.0000,0.0000,9.5,30.4,11111222
BP,ioos:station:wmo:42880:2,2022-09-02T07:05:00Z,0.0000,0.0000,9.8,30.4,11111222
BP,ioos:station:wmo:42880:2,2022-09-02T07:15:00Z,0.0000,0.0000,10.1,30.4,11111222
BP,ioos:station:wmo:42880:2,2022-09-02T07:25:00Z,0.0000,0.0000,10.4,30.4,11111222
BP,ioos:station:wmo:42880:2,2022-09-02T07:35:00Z,0.0000,0.0000,10.4,30.4,11111222
BP,ioos:station:wmo:42880:2,2022-09-02T07:45:00Z,0.0000,0.0000,10.3,30.4,11111222
BP,ioos:station:wmo:42880:2,2022-09-02T07:55:00Z,0.0000,0.0000,10.4,30.4,11111222
BP,ioos:station:wmo:42880:2,2022-09-02T08:05:00Z,0.0000,0.0000,10.5,30.4,11111222
BP,ioos:station:wmo:42880:2,2022-09-02T08:15:00Z,0.0000,0.0000,10.5,30.4,11111222
BP,ioos:station:wmo:42880:2,2022-09-02T08:25:00Z,0.0000,0.0000,10.6,30.4,11111222
BP,ioos:station:wmo:42880:2,2022-09-02T08:35:00Z,0.0000,0.0000,10.6,30.4,11111222
BP,ioos:station:wmo:42880:2,2022-09-02T08:45:00Z,0.0000,0.0000,10.6,30.4,11111222
BP,ioos:station:wmo:42880:2,2022-09-02T08:55:00Z,0.0000,0.0000,10.6,30.4,11111222
BP,ioos:station:wmo:42880:2,2022-09-02T09:05:00Z,0.0000,0.0000,10.6,30.4,11111222
BP,ioos:station:wmo:42880:2,2022-09-02T09:15:00Z,0.0000,0.0000,10.6,30.4,11111222
BP,ioos:station:wmo:42880:2,2022-09-02T09:25:00Z,0.0000,0.0000,10.6,30.4,11111222
BP,ioos:station:wmo:42880:2,2022-09-02T09:35:00Z,0.0000,0.0000,10.6,30.4,11111222
BP,ioos:station:wmo:42880:2,2022-09-02T09:45:00Z,0.0000,0.0000,10.6,30.4,11111222
BP,ioos:station:wmo:42880:2,2022-09-02T10:29:00Z,0.0000,0.0000,10.7,30.4,11111222
BP,ioos:station:wmo:42880:2,2022-09-02T10:49:00Z,0.0000,0.0000,10.6,30.4,11111222
BP,ioos:station:wmo:42880:2,2022-09-02T10:59:00Z,0.0000,0.0000,10.7,30.4,11111222
BP,ioos:station:wmo:42880:2,2022-09-02T11:09:00Z,0.0000,0.0000,10.7,30.4,11111222
BP,ioos:station:wmo:42880:2,2022-09-02T11:19:00Z,0.0000,0.0000,10.7,30.3,11111222
BP,ioos:station:wmo:42880:2,2022-09-02T11:29:00Z,0.0000,0.0000,10.6,30.4,11111222
BP,ioos:station:wmo:42880:2,2022-09-02T11:39:00Z,0.0000,0.0000,10.6,30.3,11111222
BP,ioos:station:wmo:42880:2,2022-09-02T11:49:00Z,0.0000,0.0000,10.6,30.3,11111222
BP,ioos:station:wmo:42880:2,2022-09-02T11:59:00Z,0.0000,0.0000,10.6,30.3,11111222
BP,ioos:station:wmo:42880:2,2022-09-02T12:09:00Z,0.0000,0.0000,10.6,30.3,11111222
BP,ioos:station:wmo:42880:2,2022-09-02T12:19:00Z,0.0000,0.0000,10.6,30.3,11111222
BP,ioos:station:wmo:42880:2,2022-09-02T12:29:00Z,0.0000,0.0000,10.6,30.3,11111222
BP,ioos:station:wmo:42880:2,2022-09-02T12:39:00Z,0.0000,0.0000,10.6,30.3,11111222
BP,ioos:station:wmo:42880:2,2022-09-02T12:49:00Z,0.0000,0.0000,10.6,30.3,11111222
BP,ioos:station:wmo:42880:2,2022-09-02T12:59:00Z,0.0000,0.0000,10.8,30.3,11111222
BP,ioos:station:wmo:42880:2,2022-09-02T13:09:00Z,0.0000,0.0000,10.6,30.3,11111222
BP,ioos:station:wmo:42880:2,2022-09-02T13:19:00Z,0.0000,0.0000,10.6,30.3,11111222
BP,ioos:station:wmo:42880:2,2022-09-02T13:29:00Z,0.0000,0.0000,10.1,30.3,11111222
BP,ioos:station:wmo:42880:2,2022-09-02T13:39:00Z,0.0000,0.0000,10.0,30.3,11111222
BP,ioos:station:wmo:42880:2,2022-09-02T13:49:00Z,0.0000,0.0000,10.5,30.3,11111222
BP,ioos:station:wmo:42880:2,2022-09-02T13:59:00Z,0.0000,0.0000,10.1,30.2,11111222
BP,ioos:station:wmo:42880:2,2022-09-02T14:09:00Z,0.0000,0.0000,10.1,30.2,11111222
BP,ioos:station:wmo:42880:2,2022-09-02T14:19:00Z,0.0000,0.0000,10.1,30.2,11111222
BP,ioos:station:wmo:42880:2,2022-09-02T14:29:00Z,0.0000,0.0000,10.0,30.2,11111222
BP,ioos:station:wmo:42880:2,2022-09-02T14:39:00Z,0.0000,0.0000,10.3,30.2,11111222
BP,ioos:station:wmo:42880:2,2022-09-02T14:49:00Z,0.0000,0.0000,9.7,30.2,11111222
BP,ioos:station:wmo:42880:2,2022-09-02T14:59:00Z,0.0000,0.0000,9.8,30.2,11111222
BP,ioos:station:wmo:42880:2,2022-09-02T15:09:00Z,0.0000,0.0000,9.9,30.1,11111222
BP,ioos:station:wmo:42880:2,2022-09-02T15:19:00Z,0.0000,0.0000,9.8,30.1,11111222
BP,ioos:station:wmo:42880:2,2022-09-02T15:29:00Z,0.0000,0.0000,9.8,30.1,11111222
BP,ioos:station:wmo:42880:2,2022-09-02T15:39:00Z,0.0000,0.0000,10.0,30.1,11111222
BP,ioos:station:wmo:42880:2,2022-09-08T13:01:00Z,27.2242,-90.0139,12.2,30.5,11111222
BP,ioos:station:wmo:42880:2,2022-09-08T13:11:00Z,27.2242,-90.0139,12.2,30.5,11111222
BP,ioos:station:wmo:42880:2,2022-09-08T13:22:00Z,27.2242,-90.0139,12.2,30.4,11111222
BP,ioos:station:wmo:42880:2,2022-09-08T13:32:00Z,27.2242,-90.0139,12.2,30.4,11111222
BP,ioos:station:wmo:42880:2,2022-09-08T13:42:00Z,27.2242,-90.0139,12.0,30.5,11111222
BP,ioos:station:wmo:42880:2,2022-09-08T14:59:00Z,27.2242,-90.0139,12.3,30.4,11111222
BP,ioos:station:wmo:42880:2,2022-09-08T15:09:00Z,27.2242,-90.0139,12.3,30.4,11111222
BP,ioos:station:wmo:42880:2,2022-09-08T15:19:00Z,27.2242,-90.0139,12.5,30.4,11111222
BP,ioos:station:wmo:42880:2,2022-09-08T15:29:00Z,27.2242,-90.0139,12.5,30.4,11111222
BP,ioos:station:wmo:42880:2,2022-09-08T15:39:00Z,27.2242,-90.0139,12.4,30.4,11111222
BP,ioos:station:wmo:42880:2,2022-09-08T15:49:00Z,27.2242,-90.0139,12.6,30.4,11111222
BP,ioos:station:wmo:42880:2,2022-09-08T15:59:00Z,27.2242,-90.0139,12.6,30.4,11111222
BP,ioos:station:wmo:42880:2,2022-09-08T16:09:00Z,27.2242,-90.0139,12.7,30.4,11111222
BP,ioos:station:wmo:42880:2,2022-09-08T16:19:00Z,27.2242,-90.0139,12.7,30.4,11111222
BP,ioos:station:wmo:42880:2,2022-09-08T16:29:00Z,27.2242,-90.0139,12.6,30.4,11111222
BP,ioos:station:wmo:42880:2,2022-09-08T16:39:00Z,27.2242,-90.0139,12.6,30.4,11111222
BP,ioos:station:wmo:42880:2,2022-09-08T16:49:00Z,27.2242,-90.0139,12.7,30.4,11111222
BP,ioos:station:wmo:42880:2,2022-09-08T16:59:00Z,27.2242,-90.0139,12.6,30.4,11111222
BP,ioos:station:wmo:42880:2,2022-09-08T17:09:00Z,27.2242,-90.0139,12.7,30.4,11111222
BP,ioos:station:wmo:42880:2,2022-09-08T17:33:00Z,27.2242,-90.0139,12.8,30.4,11111222
BP,ioos:station:wmo:42880:2,2022-09-08T17:43:00Z,27.2242,-90.0139,12.8,30.4,11111222
BP,ioos:station:wmo:42880:2,2022-09-08T17:53:00Z,27.2242,-90.0139,12.9,30.4,11111222
BP,ioos:station:wmo:42880:2,2022-09-08T18:03:00Z,27.2242,-90.0139,12.7,30.4,11111222
BP,ioos:station:wmo:42880:2,2022-09-08T18:13:00Z,27.2242,-90.0139,12.6,30.4,11111222
BP,ioos:station:wmo:42880:2,2022-09-08T18:23:00Z,27.2242,-90.0139,12.7,30.4,11111222
BP,ioos:station:wmo:42880:2,2022-09-08T18:33:00Z,27.2242,-90.0139,12.7,30.4,11111222
BP,ioos:station:wmo:42880:2,2022-09-08T18:43:00Z,27.2242,-90.0139,12.7,30.4,11111222
BP,ioos:station:wmo:42880:2,2022-09-08T18:53:00Z,27.2242,-90.0139,12.7,30.4,11111222
BP,ioos:station:wmo:42880:2,2022-09-08T19:03:00Z,27.2242,-90.0139,12.7,30.4,11111222
BP,ioos:station:wmo:42880:2,2022-09-08T19:13:00Z,27.2242,-90.0139,12.9,30.4,11111222
BP,ioos:station:wmo:42880:2,2022-09-08T19:23:00Z,27.2242,-90.0139,12.9,30.4,11111222
BP,ioos:station:wmo:42880:2,2022-09-08T19:33:00Z,27.2242,-90.0139,12.9,30.4,11111222
BP,ioos:station:wmo:42880:2,2022-09-08T19:43:00Z,27.2242,-90.0139,12.7,30.4,11111222
BP,ioos:station:wmo:42880:2,2022-09-08T19:53:00Z,27.2242,-90.0139,12.8,30.4,11111222
BP,ioos:station:wmo:42880:2,2022-09-08T20:03:00Z,27.2242,-90.0139,13.0,30.4,11111222
BP,ioos:station:wmo:42880:2,2022-09-08T20:13:00Z,27.2242,-90.0139,13.1,30.4,11111222
BP,ioos:station:wmo:42880:2,2022-09-08T20:23:00Z,27.2242,-90.0139,12.9,30.4,11111222
BP,ioos:station:wmo:42880:2,2022-09-08T20:33:00Z,27.2242,-90.0139,13.0,30.4,11111222
BP,ioos:station:wmo:42880:2,2022-09-08T20:43:00Z,27.2242,-90.0139,13.0,30.4,11111222
BP,ioos:station:wmo:42880:2,2022-09-08T20:53:00Z,27.2242,-90.0139,13.0,30.4,11111222
BP,ioos:station:wmo:42880:2,2022-09-08T21:03:00Z,27.2242,-90.0139,12.9,30.4,11111222
BP,ioos:station:wmo:42880:2,2022-09-08T21:13:00Z,27.2242,-90.0139,13.1,30.4,11111222
BP,ioos:station:wmo:42880:2,2022-09-08T21:23:00Z,27.2242,-90.0139,13.1,30.4,11111222
BP,ioos:station:wmo:42880:2,2022-09-08T21:33:00Z,27.2242,-90.0139,13.0,30.4,11111222
BP,ioos:station:wmo:42880:2,2022-09-08T21:43:00Z,27.2242,-90.0139,13.0,30.4,11111222
BP,ioos:station:wmo:42880:2,2022-09-08T21:53:00Z,27.2242,-90.0139,13.3,30.4,11111222
BP,ioos:station:wmo:42880:2,2022-09-08T22:03:00Z,27.2242,-90.0139,12.9,30.4,11111222
BP,ioos:station:wmo:42880:2,2022-09-08T22:13:00Z,27.2242,-90.0139,13.0,30.3,11111222
BP,ioos:station:wmo:42880:2,2022-09-08T22:23:00Z,27.2243,-90.0139,13.0,30.4,11111222
BP,ioos:station:wmo:42880:2,2022-09-08T22:33:00Z,27.2242,-90.0138,13.1,30.4,11111222
BP,ioos:station:wmo:42880:2,2022-09-08T22:43:00Z,27.2241,-90.0139,13.1,30.3,11111222
BP,ioos:station:wmo:42880:2,2022-09-08T22:53:00Z,27.2242,-90.0140,13.1,30.4,11111222
BP,ioos:station:wmo:42880:2,2022-09-08T23:03:00Z,27.2242,-90.0140,13.1,30.3,11111222
BP,ioos:station:wmo:42880:2,2022-09-08T23:13:00Z,27.2242,-90.0139,13.1,30.3,11111222
BP,ioos:station:wmo:42880:2,2022-09-08T23:23:00Z,27.2242,-90.0139,13.0,30.3,11111222
BP,ioos:station:wmo:42880:2,2022-09-08T23:33:00Z,27.2242,-90.0139,13.0,30.3,11111222
BP,ioos:station:wmo:42880:2,2022-09-08T23:43:00Z,27.2242,-90.0139,13.1,30.2,11111222
BP,ioos:station:wmo:42880:2,2022-09-08T23:53:00Z,27.2242,-90.0139,13.1,30.1,11111222
BP,ioos:station:wmo:42880:2,2022-09-09T00:03:00Z,27.2242,-90.0139,13.0,30.2,11111222